Home   Weather   Jan Mayen   Past weeks

Flag for Norway Past Weather in Jan Mayen, Jan Mayen, Norway — Yesterday and Last 2 Weeks

Now
34 °F

Chilly.


Feels Like: 29 °F
Forecast: 29 / 35 °F
Wind: 6 mph from North

Location: Jan Mayen

Current Time: Dec 3, 2016 at 11:07:39 pm

Latest Report: Dec 3, 2016 at 10:00 pm


Visibility: N/A

Pressure: 29.70 "Hg

Humidity: 88%

Dew Point: 31 °F

Location of Jan MayenLocation

Past Weather in Jan Mayen — Graph

°F

Jan Mayen Temperature Yesterday

Maximum temperature yesterday: 31 °F (at 11:00 pm)
Minimum temperature yesterday: 26 °F (at 3:00 am)
Average temperature yesterday: 27 °F

High & Low Weather Summary for the Past Weeks

 TemperatureHumidityPressure
High40 °F (Nov 28, 12:00 am)99% (Dec 2, 11:00 pm)30.38 "Hg (Dec 2, 11:00 pm)
Low22 °F (Nov 29, 10:00 pm)61% (Nov 30, 3:00 am)28.88 "Hg (Nov 25, 5:00 pm)
Average32 °F82%29.74 "Hg
* Reported Nov 18 9:00 pm — Dec 3 9:00 pm, Jan Mayen, Weather by CustomWeather, © 2016

Note: Actual official high and low records may vary slightly from our data, if they occured in-between our weather recording intervals... More about our weather records

Advertising

Jan Mayen Weather History for the Previous 24 Hours

Scroll right to see more
 ConditionsComfort  
Time TempWeatherWind HumidityBarometerVisibility
9:00 pm
Sat, Dec 3
34 °FChilly.9 mph95%29.71 "HgN/A
8:00 pm34 °FChilly.8 mph96%29.70 "HgN/A
7:00 pm34 °FLight snow. Low clouds.8 mph95%29.69 "Hg6 mi
6:00 pm34 °FChilly.7 mph89%29.67 "HgN/A
5:00 pm35 °FChilly.10 mph87%29.65 "HgN/A
4:00 pm35 °FOvercast.10 mph82%29.64 "Hg31 mi
3:00 pm34 °FChilly.12 mph93%29.64 "HgN/A
2:00 pm34 °FChilly.12 mph94%29.62 "HgN/A
1:00 pm34 °FLow clouds.7 mph93%29.61 "Hg25 mi
12:00 pm34 °FChilly.6 mph94%29.60 "HgN/A
11:00 am34 °FChilly.6 mph95%29.58 "HgN/A
10:00 am35 °FOvercast.5 mph92%29.58 "Hg25 mi
9:00 am36 °FChilly.5 mph92%29.57 "HgN/A
8:00 am35 °FChilly.1 mph93%29.56 "HgN/A
7:00 am34 °FPassing clouds.1 mph93%29.57 "Hg47 mi
6:00 am35 °FChilly.1 mph92%29.59 "HgN/A
5:00 am36 °FChilly.3 mph92%29.61 "HgN/A
4:00 am35 °FChilly.10 mph94%29.64 "HgN/A
3:00 am34 °FChilly.12 mph98%29.67 "HgN/A
2:00 am33 °FChilly.12 mph99%29.72 "HgN/A
1:00 am33 °FSnow. Low clouds.13 mph99%29.76 "Hg2 mi
12:00 am32 °FChilly.12 mph99%29.81 "HgN/A
11:00 pm
Fri, Dec 2
31 °FChilly.12 mph99%29.86 "HgN/A
Weather by CustomWeather, © 2016

See weather overviewHow to use our weather pages